[Iaude] MPEC A143: 2024 AQ3 [a=1.12,e=0.19,i=3.1,H=26.3]

mpec at marsden.cfa.harvard.edu mpec at marsden.cfa.harvard.edu
Fri Jan 12 10:08:32 EST 2024


M.P.E.C. 2024-A143                             Issued 2024 January 12, 15:06 UT

     The Minor Planet Electronic Circulars contain information on unusual
         minor planets, routine data on comets and natural satellites,
         and occasional editorial announcements.  They are published
    on behalf of Division F of the International Astronomical Union by the
          Minor Planet Center, Smithsonian Astrophysical Observatory,
                          Cambridge, MA 02138, U.S.A.
			  
             Prepared using the Tamkin Foundation Computer Network

                              MPC at CFA.HARVARD.EDU
            URL https://www.minorplanetcenter.net/    ISSN 1523-6714

                                    2024 AQ3                                    


Observations:
     K24A03Q*1C2024 01 11.38351910 15 49.072+11 26 52.22         20.31GVEA143G96
     K24A03Q 1C2024 01 11.38868010 15 46.523+11 27 33.12         20.78GVEA143G96
     K24A03Q 1C2024 01 11.39382810 15 43.956+11 28 14.52         20.65GVEA143G96
     K24A03Q 1C2024 01 11.39948910 15 41.126+11 28 58.87         21.25GVEA143G96
     K24A03Q KC2024 01 11.42293610 15 29.311+11 32 04.02         20.28GVEA143V06
     K24A03Q KC2024 01 11.42401510 15 28.710+11 32 13.06         20.48GVEA143V06
     K24A03Q KC2024 01 11.42509310 15 28.163+11 32 20.76         20.98GVEA143V06
     K24A03Q KC2024 01 11.42617410 15 27.612+11 32 29.29         20.52GVEA143V06
     K24A03Q KC2024 01 11.47626210 15 02.460+11 38 59.40         20.95GVEA143V06
     K24A03Q KC2024 01 11.47898410 15 01.220+11 39 21.30         21.47GVEA143V06
     K24A03Q KC2024 01 12.04639010 11 15.82 +12 50 10.5          20.1 GVEA143L01
     K24A03Q KC2024 01 12.04891410 11 14.62 +12 50 29.7          20.1 GVEA143L01
     K24A03Q KC2024 01 12.05143710 11 13.46 +12 50 48.4          20.2 GVEA143L01
     K24A03Q KC2024 01 12.60307810 07 38.251+14 01 10.24         20.3 GVEA143474
     K24A03Q KC2024 01 12.60789910 07 36.235+14 01 43.64         19.8 GVEA143474
     K24A03Q KC2024 01 12.61277010 07 34.046+14 02 18.78         20.3 GVEA143474

Observer details:
474 Mount John Observatory, Lake Tekapo.  Observers A. C. Gilmore, P. M.
    Kilmartin.  Measurer P. M. Kilmartin.  1.0-m f/7.7 Reflector + CCD.
G96 Mt. Lemmon Survey.  Observer J. K. Hogan.  Measurers T. Beuden, V. F.
    Carvajal, D. Fay, J. B. Fazekas, D. C. Fuls, A. R. Gibbs, A. D. Grauer, H.
    Groeller, J. K. Hogan, R. A. Kowalski, S. M. Larson, G. J. Leonard, D.
    Rankin, R. L. Seaman, F. C. Shelly, K. W. Wierzchos.  1.5-m reflector +
    10K CCD.
L01 Visnjan Observatory, Tican.  Observers K. Korlevic, L. Poropat.  Measurer
    K. Korlevic.  1.0-m f/2.9 reflector + CCD.
V06 Catalina Sky Survey-Kuiper.  Observer K. W. Wierzchos.  Measurers T.
    Beuden, V. F. Carvajal, D. Fay, J. B. Fazekas, D. C. Fuls, A. R. Gibbs, A.
    D. Grauer, H. Groeller, J. K. Hogan, R. A. Kowalski, S. M. Larson, G. J.
    Leonard, D. Rankin, R. L. Seaman, F. C. Shelly, K. W. Wierzchos.  1.55-m
    reflector + 1K CCD.

Orbital elements:
2024 AQ3                                                 Earth MOID = 0.0081 AU
Epoch 2023 Sept. 13.0 TT = JDT 2460200.5                MPC                     
M 310.40424              (2000.0)            P               Q                  
n   0.83168016     Peri.  289.75756     +0.74998224     -0.65955653             
a   1.1198637      Node   111.54333     +0.62526118     +0.68218215             
e   0.1944332      Incl.    3.08873     +0.21581265     +0.31561480             
P   1.19           H   26.35          G   0.15           U   7                  
Residuals in seconds of arc
240111 G96  0.8-  0.0     240111 V06  0.1-  0.3-    240112 L01  0.1-  0.2+
240111 G96  0.1-  0.1-    240111 V06  0.2-  0.2-    240112 474 (2.2-  1.0-)
240111 G96  0.3+  0.4+    240111 V06  0.4-  0.5-    240112 474  0.1+  1.0-
240111 G96  0.6+  0.1-    240111 V06  1.3+  0.4+    240112 474  0.1+  0.4+
240111 V06  0.8+  0.1-    240112 L01  0.1-  0.5-
240111 V06  0.0   0.5+    240112 L01  0.4-  0.1+

Ephemeris:
2024 AQ3                 a,e,i = 1.12, 0.19, 3                   q = 0.9021
Date    TT    R. A. (2000) Decl.     Delta      r    Elong.  Phase     V
2023 12 13    18 03 03.0 -51 04 53   0.05701 0.9353    29.3   149.0    28.2
...
2023 12 28    13 42 25.6 -43 14 16   0.02634 0.9707    60.4   118.3    23.1
...
2024 01 05    11 15 22.0 -08 25 01   0.02711 0.9930   110.2    68.3    20.9
...
2024 01 11    10 18 29.4 +10 36 46   0.03685 1.0108   137.3    41.3    20.8
2024 01 12    10 11 32.5 +12 46 26   0.03891 1.0139   140.6    38.0    20.9
2024 01 13    10 05 06.6 +14 42 39   0.04107 1.0169   143.7    34.9    20.9
...
2024 01 19    09 34 48.0 +22 50 11   0.05556 1.0356   158.0    20.8    21.2
...
2024 01 27    09 08 45.2 +28 12 28   0.07810 1.0610   167.7    11.4    21.6
...
2024 02 11    08 43 59.9 +31 22 28   0.1295  1.1090   159.3    18.3    23.1

A. U. Tomatic                (C) Copyright 2024 MPC           M.P.E.C. 2024-A143





More information about the Iaude mailing list